Regional Weather Roundup
Issued by NWS Wakefield, VA

Home | Current Version | Previous Version | Graphics & Text | Print | Product List | Glossary On
Versions: 1 2 3 4 5 6 7 8 9 10 11 12 13 14 15 16 17 18 19 20 21 22 23 24 25
068
ASUS41 KAKQ 211214
RWRAKQ

REGIONAL WEATHER ROUNDUP
NATIONAL WEATHER SERVICE WAKEFIELD VA
800 AM EDT THU MAY 21 2015

Note: "fair" indicates few or no clouds below 12,000 feet with no
significant weather and/or obstructions to visibility. * = Denotes
station may not report precipitation (e.g., rain,snow,etc.),
thunder or fog.

VAZ042-051-052>054-056-211300-
NORTHERN VIRGINIA

CITY           SKY/WX    TMP DP  RH WIND       PRES   REMARKS
WASH NATIONAL  CLOUDY    61  44  53 E6        29.99S
DULLES         LGT RAIN  57  46  66 CALM      29.99R
FORT BELVOIR   DRIZZLE   57  46  67 VRB3      29.99R
QUANTICO       LGT RAIN  58  49  72 VRB3      30.01R
FREDERICKSBRG* RAIN      57  52  84 NE3       29.98R
STAFFORD*      DRIZZLE   55  50  83 E6        30.02R
WARRENTON      RAIN      55  53  92 CALM      29.99R
CULPEPER*      DRIZZLE   53  50  92 CALM      29.99S
MANASSAS*      NOT AVBL
LEESBURG*      LGT RAIN  54  52  94 N3        30.00S
WINCHESTER     CLOUDY    54  43  66 NE5       29.98S
FRONT ROYAL*   CLOUDY    52  50  93 CALM      29.97R
LURAY*         LGT RAIN  54  54 100 N5        29.97S
$$

VAZ048-049-060>072-079>083-211300-
CENTRAL AND SOUTH CENTRAL VIRGINIA

CITY           SKY/WX    TMP DP  RH WIND       PRES   REMARKS
RICHMOND       LGT RAIN  59  51  75 E8        29.94F
CHESTERFIELD*  NOT AVBL
PETERSBURG*    LGT RAIN  61  57  85 E5        29.95S
HANOVER        CLOUDY    57  49  74 E3        29.97S
TAPPAHANNOCK*  RAIN      60  45  58 E6        29.98R
QUINTON*       CLOUDY    58  52  80 E5        29.97R
CHARLOTTSVILLE CLOUDY    56  46  69 NE7       29.97R
GORDONSVILLE*  CLOUDY    54  49  82 NE6       29.97S
ORANGE*        CLOUDY    55  50  82 N3        29.98S
LOUISA*        CLOUDY    55  52  88 N5        29.96R
BUMPASS*       CLOUDY    56  52  86 NE3       29.97R
FARMVILLE*     RAIN      56  56 100 N5        29.95R
CREWE*         CLOUDY    57  55  94 E3        29.94F
FORT PICKETT*  CLOUDY    57  56  97 E3        29.94S
CHASE CITY*    CLOUDY    60  60 100 E5        29.92S
CLARKSVILLE*   CLOUDY    59  59 100 CALM      29.92R
SOUTH HILL*    CLOUDY    58  57  96 E3        29.98S
LAWRENCEVILLE* CLOUDY    59  57  94 CALM      29.94R
EMPORIA*       CLOUDY    63  55  77 E9        29.95S
$$

VAZ088>098-211300-
SOUTHEAST VIRGINIA

CITY           SKY/WX    TMP DP  RH WIND       PRES   REMARKS
NORFOLK        CLOUDY    64  51  62 SE8       29.96S
VIRGINIA BEACH CLOUDY    65  51  60 E10       29.95S
NORFOLK NAVAL  CLOUDY    68  52  56 E9        29.98R
WEST POINT*    CLOUDY    63  51  64 E7        29.99R
SALUDA*        CLOUDY    62  49  64 E9G18     29.97S
NEWPORT NEWS   CLOUDY    66  51  58 E9        29.97R
LANGLEY AFB    CLOUDY    64  50  61 E9        29.96R
FORT EUSTIS    CLOUDY    64  50  60 E6        29.95R
WILLIAMSBURG*  CLOUDY    64  55  72 E10       29.97S
HR EXEC AP*    CLOUDY    63  52  67 E9        29.98S
FRANKLIN*      CLOUDY    62  53  72 E6        29.95F
WAKEFIELD      LGT RAIN  62  56  80 CALM      29.96R
$$

VAZ020-022-025-037-045-211300-
WEST CENTRAL AND SOUTHWEST VIRGINIA

CITY           SKY/WX    TMP DP  RH WIND       PRES   REMARKS
STAUNTON*      DRIZZLE   54  48  82 CALM      29.99R
WAYNESBORO*    CLOUDY    53  44  73 CALM      29.98R
HOT SPRINGS VA DRIZZLE   46  46  98 SE8       29.95S
LYNCHBURG      CLOUDY    55  49  80 NE9       29.96R
DANVILLE       CLOUDY    60  57  89 E6        29.92R
SOUTH BOSTON*  CLOUDY    58  57  96 CALM      29.92S
MARTINSVILLE   CLOUDY    57  57 100 N7        29.95S
ROANOKE        NOT AVBL
BLACKSBURG     CLOUDY    55  47  75 E8        29.98S
DUBLIN*        RAIN      57  52  84 E5        29.96R
MARION*        RAIN      57  55  91 E5        29.96S
HILLSVILLE*    CLOUDY    56  55  94 NE6       29.93S
RICHLANDS*     RAIN      56  56 100 CALM      29.94R VSB 3/4
WISE*          CLOUDY    55  55 100 NW5       29.97R
ABINGDON*      DRIZZLE   60  59  98 CALM      29.93R
$$

MDZ021>025-VAZ099-100-211300-
SOUTHERN MARYLAND AND THE DELMARVA PENINSULA

CITY           SKY/WX    TMP DP  RH WIND       PRES   REMARKS
PATUXENT RIVER LGT RAIN  59  48  67 E12       29.98F
BAY BRIDGE APT   N/A    N/A N/A N/A E8        29.99S
LEONARDTOWN    CLOUDY    55  46  71 E5        30.00R
DOVER          CLOUDY    56  41  58 E9        29.96F
GEORGETOWN     CLOUDY    54  46  74 NE6       30.00F
EASTON         CLOUDY    57  46  67 SE5       30.03F
CAMBRIDGE      CLOUDY    55  45  67 NE5       29.99S
SALISBURY      CLOUDY    54  46  74 E5        29.98F
OCEAN CITY     CLOUDY    58  44  60 E10       29.99F
WALLOPS ISLAND CLOUDY    59  50  72 E12       29.99R
ACCOMACK*      CLOUDY    61  52  72 E7        29.98S
$$

NCZ012>017-030>032-211300-
NORTH CENTRAL AND EASTERN NORTH CAROLINA

CITY           SKY/WX    TMP DP  RH WIND       PRES   REMARKS
ROANOKE RAPIDS CLOUDY    63  54  72 E5        29.93R
RALEIGH        LGT RAIN  67  54  63 SE14G22   29.88F
ELIZABETH CITY CLOUDY    66  56  70 E12       29.95F
AHOSKIE*       CLOUDY    64  56  78 E6        29.93F HAZE
EDENTON*       CLOUDY    66  58  75 E7        29.94F
CURRITUCK*     CLOUDY    65  53  64 E5        29.97S
KILL DEVIL HLS SUNNY     66  55  68 E9        29.94S
MANTEO         SUNNY     66  56  69 E12       29.95S
CAPE HATTERAS  SUNNY     73  62  68 SE15      29.91F
TARBORO*       CLOUDY    67  54  63 E7        29.92F
GOLDSBORO      PTSUNNY   68  59  72 E9        29.87F
WASHINGTON     MOSUNNY   65  57  75 E8        29.92F
GREENVILLE     MOSUNNY   68  55  64 E7        29.93F
NEW BERN       CLOUDY    72  63  73 E5        29.91S
WILMINGTON     CLOUDY    73  70  90 NW5       29.87S
$$

VAZ048-211300-
ELSEWHERE

CITY           SKY/WX    TMP DP  RH WIND       PRES   REMARKS
HARRISBURG PA  CLOUDY    53  42  66 N5        30.02R
BALTIMORE      CLOUDY    57  39  51 E10       29.99S
ANNAPOLIS      CLOUDY    59  39  47 E12       29.99S
ANDREWS AFB    CLOUDY    56  47  72 E6        29.98S
PHILADELPHIA   CLOUDY    56  36  47 E7        30.02S
HENDERSON NC   RAIN      60  56  87 E6        29.90F
GREENSBORO     CLOUDY    63  62  97 NE7       29.87S FOG
ROCKY MOUNT    CLOUDY    66  51  58 VRB3      29.91F
$$

VAZ100-211300-
MARINE

STATION/POSITION TIME  TEMP    WIND        PRES    WAVE   SWELL
                       AIR SEA DIR/SP/G            HT/PER HT/PER
                 (UTC) (F)     (DEG/KT/KT) (MB)    (FT/S) (FT/S)
BRANDYWINE LGT   1100   55 63   90/  9/ 11 1016.4R
CAPE MAY NJ      1100   53 67   20/  3/  5 1016.2R
LEWES DE         1100   57 65   80/  7/  9 1016.2R
15NM E FENWICK I 1150   58 59              1015.6R   3/ 9
OCEAN-CITY-INLET 1100   58 62   80/  6/ 11 1015.6R
WACHAPREAGUE VA  1100   61 72   90/ 11/ 15 1015.1R
THOMAS POINT MD  1200   58 67  110/ 14/ 16 1016.0F
GOOSES REEF MD   1200   58 67  110/ 14/ 16 1016.6R   0
COVE POINT MD    1100   57     120/ 12/ 15 1016.3F
BISHOPS HEAD MD  1100   59 69   80/ 12/ 15 1014.8F
PINEY POINT MD   1100          110/ 16/ 18   N/A
CAMBRIDGE MD     1100   58 72   70/ 12/ 16 1015.2F
LEWISETTA VA     1100   62 73              1014.4R
RAPPAHANNOCK LGT 1100           90/  9/ 11 1015.4R
STINGRAY PT      1200   63 71  120/ 14/ 17 1014.3R   2/ 3
YORK RVR RNG VA  1100   63     100/ 15/ 17 1013.9R
YORKTOWN VA      1100   64 72   90/ 16/ 18 1014.2R
JAMESTOWN VA     1200   63 77  110/ 10/ 16 1013.4R
DOMINION TERM VA 1100   65      30/  2/  6 1014.5R
KIPTOPEKE VA     1100      73   90/  5/  9   N/A
CHES BAY BRIDGE  1100   63 69   70/ 13/ 16 1014.2R
CAPE HENRY VA    1100   63      80/ 12/ 15 1013.5R
CHESAPEAKE LGHT  1100   63      90/ 12/ 12 1015.2R
WILLOUBY STN VA  1100   64     100/ 13/ 15 1015.1R
CAPE HENRY BUOY  1128      66                N/A     3/ 9
1ST LANDING BUOY 1200      67              1014.3S
CAPE CHARLES BUO 1126      66                N/A     3/ 9   2/ 9
OFFSHORE WE BUOY 1111      65                N/A     3/ 9   2/ 9
64NM E OF VA BCH 1150   63 62   80/  8/ 10 1014.3R   3/ 9   3/ 9
DUCK PIER NC     1100   65 67   90/ 14/ 15 1013.3S
44100 DUCK FRF   1124      66                N/A     3/ 9
44056 DUCK FRF   1111      66                N/A     3/ 4
OREGON INLET NC  1100   65 68   50/  9/ 13 1014.1R
HATTERAS NC      1100   73 72  100/ 11/ 14 1012.7F
DIAMOND SHLS NC  1150   74 77  110/ 14/ 17 1012.9F   3/ 8   2/ 8
CAPE LOOKOUT NC  1200   72     120/ 14/ 16 1011.8F
$$



USA.gov is the U.S. government's official web portal to all federal, state and local government web resources and services.